| time (UTC) | temp C | wind direction | speed KPH | gust KPH | rain 1hr cm | rain 24hr cm | rain mn cm | humidity % | barometer mb |
| 20260503021523 | -17 | 267 | 0.0 | 6.4 | 0.00 | 0.05 | 0.00 | 1011.7 | |
| 20260503020016 | -17 | 248 | 0.0 | 9.7 | 0.00 | 0.05 | 0.00 | 1011.7 | |
| 20260503014516 | -17 | 257 | 0.0 | 0.0 | 0.00 | 0.05 | 0.00 | 1011.7 | |
| 20260503013008 | -17 | 250 | 0.0 | 0.0 | 0.00 | 0.05 | 0.00 | 1011.7 | |
| 20260503011504 | -17 | 248 | 0.0 | 6.4 | 0.00 | 0.05 | 0.00 | 1011.6 | |
| 20260503010100 | -17 | 243 | 0.0 | 8.0 | 0.00 | 0.05 | 0.00 | 1011.7 | |
| 20260503004556 | -17 | 251 | 0.0 | 8.0 | 0.00 | 0.05 | 0.00 | 1011.7 | |
| 20260503003051 | -17 | 244 | 0.0 | 3.2 | 0.00 | 0.05 | 0.00 | 1011.8 | |
| 20260503001546 | -17 | 265 | 1.6 | 8.0 | 0.00 | 0.05 | 0.00 | 1011.8 | |
| 20260503000043 | -17 | 266 | 0.0 | 8.0 | 0.00 | 0.05 | 0.00 | 1011.9 | |
| 20260502234538 | -17 | 301 | 0.0 | 1.6 | 0.00 | 0.05 | 0.00 | 1011.9 | |
| 20260502233036 | -17 | 273 | 0.0 | 4.8 | 0.00 | 0.05 | 0.00 | 1011.9 | |
| 20260502231531 | -17 | 271 | 0.0 | 3.2 | 0.00 | 0.05 | 0.00 | 1011.9 | |
| 20260502230024 | -17 | 283 | 0.0 | 0.0 | 0.00 | 0.05 | 0.00 | 1011.8 | |
| 20260502224520 | -17 | 283 | 0.0 | 0.0 | 0.00 | 0.05 | 0.00 | 1011.9 | |
| 20260502223016 | -17 | 283 | 0.0 | 0.0 | 0.00 | 0.05 | 0.00 | 1012.0 | |
| 20260502221510 | -17 | 296 | 0.0 | 3.2 | 0.00 | 0.05 | 0.00 | 1012.0 | |
| 20260502220010 | -17 | 248 | 0.0 | 0.0 | 0.00 | 0.05 | 0.00 | 1011.9 | |
| 20260502214501 | -17 | 252 | 0.0 | 0.0 | 0.00 | 0.05 | 0.05 | 1011.9 | |
| 20260502213057 | -17 | 280 | 0.0 | 6.4 | 0.00 | 0.05 | 0.05 | 1011.8 | |
| 20260502211553 | -17 | 218 | 3.2 | 9.7 | 0.00 | 0.05 | 0.05 | 1011.9 | |
| 20260502210058 | -17 | 240 | 3.2 | 11.3 | 0.00 | 0.05 | 0.05 | 1011.9 | |
| 20260502204543 | -17 | 276 | 1.6 | 8.0 | 0.00 | 0.05 | 0.05 | 1011.9 | |
| 20260502203038 | -17 | 243 | 0.0 | 4.8 | 0.00 | 0.05 | 0.05 | 1011.9 | |
| 20260502201536 | -17 | 225 | 1.6 | 8.0 | 0.00 | 0.05 | 0.05 | 1011.9 | |
| 20260502200032 | -17 | 293 | 0.0 | 1.6 | 0.00 | 0.05 | 0.05 | 1011.6 | |
| 20260502194526 | -17 | 287 | 0.0 | 0.0 | 0.00 | 0.05 | 0.05 | 1011.7 | |
| 20260502193021 | -17 | 264 | 0.0 | 0.0 | 0.00 | 0.05 | 0.05 | 1011.5 | |
| 20260502191522 | -17 | 250 | 0.0 | 6.4 | 0.00 | 0.05 | 0.05 | 1011.3 | |
| 20260502190025 | -17 | 240 | 0.0 | 9.7 | 0.00 | 0.05 | 0.05 | 1011.3 | |
| 20260502184512 | -17 | 286 | 1.6 | 9.7 | 0.00 | 0.05 | 0.05 | 1011.2 | |
| 20260502183004 | -17 | 270 | 0.0 | 4.8 | 0.00 | 0.05 | 0.05 | 1011.1 | |
| 20260502181559 | -17 | 277 | 0.0 | 0.0 | 0.00 | 0.05 | 0.05 | 1011.2 | |
| 20260502180121 | -17 | 264 | 0.0 | 4.8 | 0.00 | 0.05 | 0.05 | 1011.1 | |
| 20260502163028 | -17 | 236 | 0.0 | 3.2 | 0.00 | 0.05 | 0.05 | 1011.2 | |
| 20260502161523 | -17 | 230 | 1.6 | 8.0 | 0.00 | 0.05 | 0.05 | 1011.4 | |
| 20260502151506 | -17 | 267 | 0.0 | 0.0 | 0.00 | 0.05 | 0.05 | 1011.6 | |
| 20260502123017 | -17 | 277 | 1.6 | 11.3 | 0.03 | 0.03 | 0.03 | 1012.7 | |
| 20260502121516 | -17 | 271 | 0.0 | 4.8 | 0.03 | 0.03 | 0.03 | 1012.9 | |
| 20260502114506 | -17 | 5 | 0.0 | 4.8 | 0.00 | 0.00 | 0.00 | 1012.9 | |
| 20260502113100 | -17 | 360 | 0.0 | 0.0 | 0.00 | 0.00 | 0.00 | 1012.9 | |
| 20260502111601 | -17 | 360 | 0.0 | 3.2 | 0.00 | 0.00 | 0.00 | 1012.8 | |
| 20260502110053 | -17 | 130 | 0.0 | 6.4 | 0.00 | 0.00 | 0.00 | 1012.7 | |
| 20260502104548 | -17 | 47 | 0.0 | 1.6 | 0.00 | 0.00 | 0.00 | 1012.6 | |
| 20260502103051 | -17 | 44 | 0.0 | 0.0 | 0.00 | 0.00 | 0.00 | 1013.2 | |
| 20260502101600 | -17 | 360 | 0.0 | 0.0 | 0.00 | 0.00 | 0.00 | 1013.3 | |
| 20260502091520 | -17 | 360 | 0.0 | 6.4 | 0.00 | 0.00 | 0.00 | 1013.8 | |
| 20260502080108 | -17 | 360 | 0.0 | 4.8 | 0.00 | 0.00 | 0.00 | 1013.7 | |
| 20260502070040 | -17 | 360 | 0.0 | 0.0 | 0.00 | 0.00 | 0.00 | 1013.9 | |
| 20260502064540 | -17 | 360 | 0.0 | 0.0 | 0.00 | 0.00 | 0.00 | 1013.9 | |
| 20260502063032 | -17 | 360 | 0.0 | 4.8 | 0.00 | 0.00 | 0.00 | 1014.0 | |
| 20260502061527 | -17 | 360 | 0.0 | 8.0 | 0.00 | 0.00 | 0.00 | 1013.9 | |
| 20260502060024 | -17 | 360 | 0.0 | 6.4 | 0.00 | 0.00 | 0.00 | 1013.9 | |
| 20260502054519 | -17 | 360 | 0.0 | 0.0 | 0.00 | 0.00 | 0.00 | 1014.1 | |
| 20260502053014 | -17 | 360 | 0.0 | 0.0 | 0.00 | 0.00 | 0.00 | 1014.1 | |
| 20260502051510 | -17 | 57 | 0.0 | 0.0 | 0.00 | 0.00 | 0.00 | 1014.2 | |
| 20260502050007 | -17 | 58 | 0.0 | 6.4 | 0.00 | 0.00 | 0.00 | 1014.3 | |
| 20260502044502 | -17 | 360 | 1.6 | 9.7 | 0.00 | 0.00 | 0.00 | 1014.3 | |
| 20260502043112 | -17 | 360 | 0.0 | 0.0 | 0.00 | 0.00 | 0.00 | 1014.8 | |
| 20260502041552 | -17 | 360 | 0.0 | 4.8 | 0.00 | 0.00 | 0.00 | 1015.0 | |
| 20260502040049 | -17 | 360 | 0.0 | 4.8 | 0.00 | 0.00 | 0.00 | 1015.0 | |
| 20260502034543 | -17 | 90 | 0.0 | 6.4 | 0.00 | 0.00 | 0.00 | 1015.0 | |
| 20260502033042 | -17 | 119 | 0.0 | 4.8 | 0.00 | 0.00 | 0.00 | 1015.2 | |
| 20260502031536 | -17 | 144 | 0.0 | 4.8 | 0.00 | 0.00 | 0.00 | 1015.4 | |
| 20260502030030 | -17 | 360 | 1.6 | 8.0 | 0.00 | 0.00 | 0.00 | 1015.5 | |
| 20260502024526 | -17 | 360 | 0.0 | 11.3 | 0.00 | 0.00 | 0.00 | 1015.8 | |
| 20260502023021 | -17 | 360 | 0.0 | 3.2 | 0.00 | 0.00 | 0.00 | 1016.0 |